Location: Jysk�
(62.2333°N, 25.8333°E)
Time: 06:00:03
(UTC+00:00)

Daily predictions for brighter satellites

Satellite Brightness Start Highest point End
(mag) Time Altitude Azimuth Time Altitude Azimuth Time Altitude Azimuth
USA 238 DEB 4.0 19:05:19 10° SSW 19:11:37 45° SE 19:18:13 10° ENE
USA 238 4.0 19:05:26 10° SSW 19:11:44 45° SE 19:18:19 10° ENE
Cosmos 1867 3.7 19:08:06 10° SW 19:13:24 55° SE 19:18:45 10° ENE
Cosmos 2237 Rocket 3.0 19:08:20 10° NW 19:13:50 47° NNE 19:19:18 10° ESE
Cosmos 1933 Rocket 3.7 19:09:59 10° S 19:14:22 61° E 19:18:49 10° NNE
Cosmos 1666 Rocket 4.1 19:10:37 10° SSW 19:14:56 63° WNW 19:19:18 10° NNE
CENTAUR R/B 3.2 19:09:47 10° S 19:15:26 36° SE 19:22:01 10° ENE
NOSS 0 Rocket 4.4 19:10:20 10° NW 19:16:34 63° NNE 19:22:47 10° ESE
CZ-4B DEB 4.4 19:14:04 10° SSE 19:17:25 84° ENE 19:20:46 10° NNW
Cosmos 1954 Rocket 4.0 19:12:45 10° SSW 19:18:04 74° ESE 19:23:24 10° NE
Spot 2 Rocket 3.9 19:13:17 10° S 19:18:22 66° WSW 19:23:27 10° NNW
Meteor 1-20 Rocket 4.3 19:12:43 10° S 19:18:33 77° ESE 19:24:25 10° NNE
Okean 1-7 3.3 19:14:50 10° NNW 19:19:10 73° W 19:23:27 10° S
Cosmos 1515 4.1 19:15:31 10° NNW 19:19:20 64° W 19:23:07 10° S
Cosmos 44 Rocket 3.4 19:15:08 10° WNW 19:20:04 76° SSW 19:25:06 10° SE
Cosmos 405 Rocket 2.6 19:18:53 10° S 19:22:36 68° ESE 19:26:26 10° NNE
Cosmos 1741 Rocket 4.4 19:20:59 10° S 19:25:58 45° ESE 19:31:02 10° NE
Cosmos 1869 Rocket 4.2 19:21:56 10° SSE 19:26:06 40° E 19:30:19 10° NNE
Cosmos 1437 Rocket 3.5 19:22:54 10° NNW 19:26:36 48° W 19:30:16 10° S
Cosmos 2333 Rocket 2.3 19:21:27 10° NW 19:27:17 84° NE 19:33:05 10° SE
Cosmos 407 Rocket 4.0 19:23:18 10° SW 19:28:35 67° NW 19:33:50 10° NE
Cosmos 1703 Rocket 4.1 19:24:52 10° NNW 19:29:10 57° W 19:33:24 10° S
Cosmos 1271 Rocket 3.9 19:27:10 10° N 19:30:34 31° ENE 19:34:01 10° ESE
H-2A R/B 3.4 19:26:34 10° NNE 19:30:42 69° ESE 19:34:49 10° S
Cosmos 1674 Rocket 4.3 19:28:27 10° N 19:32:36 41° ENE 19:36:45 10° SE
Cosmos 1190 Rocket 4.4 19:27:27 10° SW 19:32:46 71° NW 19:38:08 10° NE
Cosmos 1140 Rocket 3.9 19:29:20 10° SW 19:34:35 71° NW 19:39:52 10° NE
OBJECT-B 3.8 19:35:44 10° WSW 19:37:31 14° W 19:39:18 10° NW
Cosmos 2084 Rocket 4.3 19:36:15 10° SSW 19:39:53 28° SE 19:43:36 10° ENE
SWARM A 4.4 19:38:08 10° N 19:41:30 78° W 19:44:50 10° S
Cosmos 1633 Rocket 4.2 19:37:38 10° SW 19:41:55 47° WNW 19:46:13 10° N
Cosmos 1184 Rocket 4.0 19:39:24 10° SW 19:42:36 45° WNW 19:45:49 10° N
Geosat 4.3 19:38:16 10° ESE 19:43:16 66° NE 19:48:17 10° NW
SPOT 5 2.8 19:39:02 10° SSE 19:43:25 73° WSW 19:47:59 10° NNW
Tsikada Rocket 4.2 19:41:22 10° NNW 19:47:45 67° ENE 19:53:56 10° SSE
CZ-2C R/B 3.9 19:44:27 10° NNE 19:49:23 45° WNW 19:54:19 10° SW
USA 267 4.1 19:47:20 10° E 19:52:38 26° SE 19:57:56 10° SSW
Cosmos 2344 4.1 19:44:45 10° WNW 19:52:59 87° SSW 20:04:05 10° ESE
OPS 6432 4.1 19:51:01 10° SW 19:54:18 58° SSE 19:57:12 10° ENE
Meteor 1-11 Rocket 4.3 19:49:39 10° SSE 19:55:00 43° E 20:00:31 10° NNE
ERBS 3.5 19:52:17 10° WSW 19:55:05 25° SSW 19:57:19 13° SSE
Meteor 2-4 Rocket 4.3 19:50:32 10° NNW 19:56:05 56° W 20:01:27 10° S
Cosmos 1733 Rocket 4.1 19:52:36 11° SSE 19:56:14 31° E 20:00:09 10° NNE
Cosmos 1605 Rocket 4.3 19:50:51 10° SSW 19:56:56 70° WNW 20:03:04 10° NNE
Cosmos 2219 Rocket 2.3 19:51:38 10° NW 19:57:21 79° SW 20:02:41 12° SE
Cosmos 1356 4.3 19:56:57 12° SSE 19:59:40 32° E 20:02:47 10° NNE
SL-16 R/B 3.9 19:55:12 10° NW 19:59:47 26° WSW 20:04:22 10° SSW
Cosmos 2100 Rocket 4.0 19:54:00 10° S 20:00:06 70° E 20:06:16 10° NNE
NOSS 3-2 (A) 3.6 19:55:27 10° SW 20:01:27 64° SE 20:08:28 10° ENE
Lacrosse 4 Rocket 2.9 20:01:22 12° SSE 20:03:49 19° ESE 20:06:47 10° ENE
Cosmos 2173 Rocket 4.0 19:58:07 10° S 20:04:12 70° E 20:10:17 10° NNE
SL-4 R/B 3.6 20:03:35 10° SW 20:05:58 16° S 20:07:24 13° SSE
ALOS 2 3.8 20:02:17 10° ESE 20:06:14 33° NE 20:10:12 10° N
Meteor 1-23 Rocket 4.3 20:03:41 10° NNW 20:09:34 87° ENE 20:14:58 12° SSE
SL-27 R/B 2.2 20:06:58 10° SSW 20:10:16 71° ESE 20:13:36 10° NE
Cosmos 2322 4.1 20:04:52 10° NW 20:10:26 56° WSW 20:15:30 12° SSE
Cosmos 1607 4.1 20:05:19 10° WNW 20:11:45 85° NNE 20:18:16 10° ESE
NOSS 3-2 (C) 3.6 20:06:16 10° SW 20:12:10 56° SE 20:19:03 10° ENE
Cosmos 1242 Rocket 2.6 20:10:06 10° NNW 20:13:45 78° WSW 20:16:53 14° S
SAR-Lupe-2 3.6 20:12:25 10° NNE 20:16:00 67° ESE 20:19:35 10° S
Cosmos 2082 Rocket 2.8 20:11:08 10° WSW 20:16:47 64° NW 20:22:26 10° NE
Cosmos 1725 Rocket 4.3 20:10:39 10° S 20:16:48 56° E 20:22:59 10° NNE
Cosmos 2322 Rocket 4.0 20:12:34 10° NW 20:17:02 24° WSW 20:21:29 10° SSW
Cosmos 1459 Rocket 4.1 20:10:53 10° S 20:17:13 81° ESE 20:23:39 10° NNE
ERS-1 Rocket 4.0 20:17:13 10° SSW 20:21:57 40° W 20:26:43 10° NNW
Spot 4 4.0 20:19:11 14° SE 20:23:18 67° ENE 20:28:09 10° NNW
Cosmos 1842 4.1 20:19:49 10° N 20:23:35 40° ENE 20:26:35 14° SE
Cosmos 2221 Rocket 4.2 20:19:21 10° NNW 20:23:44 54° W 20:28:08 10° S
Cosmos 1378 Rocket 3.6 20:19:41 10° NNW 20:24:11 79° ENE 20:27:49 15° SSE
Cosmos 2016 Rocket 4.1 20:18:09 10° S 20:24:28 70° E 20:30:51 10° NNE
Cosmos 2360 Rocket 3.5 20:21:35 10° NW 20:26:33 32° WSW 20:31:28 10° S
MOS 1-B Rocket 4.4 20:22:52 10° NNE 20:28:14 40° E 20:32:39 14° SSE
Cosmos 1850 Rocket 4.1 20:23:41 10° SW 20:28:59 84° NW 20:34:16 10° NE
SL-16 R/B 2.9 20:23:40 10° NW 20:29:18 54° NNE 20:34:54 10° ESE
Cosmos 1500 3.4 20:26:32 10° SSW 20:30:17 70° WNW 20:34:04 10° NNE
Cosmos 1536 2.9 20:27:22 14° S 20:30:43 58° E 20:34:38 10° NNE
Terra 2.7 20:28:07 10° S 20:32:42 45° W 20:37:18 10° NNW
USA 234 4.3 20:29:00 13° SSE 20:33:50 30° SW 20:39:29 10° W
ATLAS 3B R/B 3.0 20:31:19 10° SSW 20:37:27 42° SE 20:43:42 10° ENE
Cosmos 1666 2.6 20:37:36 12° S 20:40:59 81° ESE 20:44:48 10° NNE
COSMOS 2487 2.9 20:39:02 17° S 20:41:19 40° ESE 20:44:35 10° NE
Iridium 4 Rocket 3.4 20:39:00 10° SSW 20:43:09 63° W 20:47:20 10° N
Cosmos 1378 3.2 20:40:10 10° NNW 20:43:56 73° WSW 20:46:39 18° S
Cosmos 1975 Rocket 3.5 20:42:22 10° N 20:46:49 56° ENE 20:50:09 17° SE
Cosmos 1980 3.7 20:44:49 10° NW 20:50:32 79° SW 20:55:09 16° SE
Thor Agena Rocket 4.3 20:46:18 10° NNE 20:51:02 37° E 20:54:28 17° SSE
Cosmos 1833 Rocket 4.1 20:47:14 10° W 20:52:37 42° NNW 20:58:00 10° NE
Cosmos 2297 Rocket 4.1 20:50:24 10° ESE 20:52:57 13° E 20:55:32 10° ENE
COSMOS 2428 3.3 20:47:59 10° NW 20:53:28 47° WSW 20:57:48 16° S
Cosmos 2233 Rocket 4.1 20:49:34 14° S 20:55:00 66° E 21:01:17 10° NNE
Okean 2 3.4 20:51:23 10° NNW 20:55:32 77° ENE 20:58:24 19° SSE
MTI 3.7 20:53:00 10° NNE 20:56:06 63° ESE 20:58:03 21° S
Cosmos 1867 3.8 20:51:29 10° WSW 20:56:58 77° NNW 21:02:28 10° ENE
Cosmos 2061 Rocket 4.1 20:51:14 10° SSW 20:57:28 84° WNW 21:03:44 10° NNE
Cosmos 1544 4.1 20:56:21 19° SE 20:58:18 32° E 21:01:38 10° NNE
Cosmos 2237 Rocket 2.2 20:52:38 10° NW 20:58:19 76° SW 21:02:46 17° SSE
USA 238 DEB 3.7 20:55:20 10° WSW 21:02:09 85° SSE 21:09:21 10° ENE
USA 238 3.7 20:55:26 10° WSW 21:02:15 85° SSE 21:09:27 10° ENE
Cosmos 1025 Rocket 4.0 20:58:22 10° N 21:02:24 38° ENE 21:05:39 14° SE
Cosmos 1802 Rocket 4.3 20:56:13 10° SSW 21:02:35 72° WNW 21:08:54 10° NNE
Cosmos 1975 3.9 21:00:29 19° SE 21:02:45 32° E 21:06:24 10° NNE
Cosmos 1743 3.0 21:00:17 20° SSE 21:02:46 53° E 21:06:36 10° NNE
NOSS 0 Rocket 4.2 20:57:01 10° NW 21:03:08 58° WSW 21:07:51 17° SSE
Nadezhda 4 Rocket 4.4 20:59:04 10° NNW 21:05:18 58° ENE 21:10:23 16° SE
CENTAUR R/B 2.7 20:58:49 10° SW 21:05:21 76° SSE 21:13:10 10° ENE
Cosmos 1271 Rocket 3.3 21:03:05 10° NNW 21:06:46 49° W 21:09:24 18° S
Cosmos 1674 Rocket 4.5 21:06:23 10° NNW 21:10:29 41° W 21:13:55 14° SSW
Cosmos 2333 Rocket 3.3 21:06:02 10° NW 21:11:10 34° WSW 21:15:19 14° S
ATLAS 5 CENTAUR R/B 4.2 21:12:28 10° WSW 21:14:03 12° SSW 21:14:58 12° SSW
Cosmos 2084 Rocket 3.4 21:14:39 10° WSW 21:18:55 71° SSE 21:23:18 10° ENE
Cosmos 1674 4.4 21:16:04 10° N 21:19:15 26° ENE 21:22:16 11° ESE
Cosmos 923 Rocket 4.4 21:17:14 10° NW 21:22:36 65° NE 21:27:24 13° SE
Cosmos 1437 3.1 21:19:48 10° N 21:22:44 49° ENE 21:24:17 23° SE
NOSS 5 (C) 4.4 21:22:11 10° SW 21:25:33 49° SSE 21:28:28 10° ENE
Cosmos 1486 Rocket 4.0 21:22:07 14° SSW 21:26:37 67° ESE 21:31:48 10° NE
Cosmos 1092 Rocket 4.5 21:20:50 10° NNW 21:26:59 55° ENE 21:32:06 15° SE
Meteor 2-11 Rocket 4.5 21:22:23 17° S 21:27:13 74° E 21:33:22 10° NNE
Cosmos 1943 4.2 21:22:04 10° NW 21:27:31 47° NNE 21:32:58 10° ESE
Cosmos 1733 Rocket 3.6 21:29:41 11° SSW 21:33:51 56° WNW 21:38:16 10° N
Cosmos 773 Rocket 4.3 21:29:09 10° NW 21:34:11 54° WSW 21:37:32 20° S
USA 267 3.5 21:30:33 10° E 21:36:51 47° SSE 21:43:07 10° SW
Meteor 1-11 Rocket 4.4 21:32:42 10° SW 21:38:23 57° WNW 21:44:12 10° NNE
Sich 1 Rocket 4.2 21:37:44 21° SSE 21:40:16 42° E 21:44:27 10° NNE
Cosmos 1626 4.2 21:37:38 10° N 21:40:34 21° NE 21:43:30 10° ESE
Cosmos 2219 Rocket 3.7 21:36:05 10° NW 21:40:39 25° WSW 21:44:23 13° SSW
Cosmos 968 Rocket 3.4 21:37:25 15° SSW 21:41:44 73° ESE 21:46:54 10° NE
Lacrosse 4 Rocket 1.3 21:37:42 10° SW 21:41:55 70° SE 21:46:03 10° NE
ALOS 2 2.9 21:39:37 21° S 21:42:25 59° WSW 21:46:48 10° NNW
Cosmos 2227 Rocket 3.6 21:40:11 16° SE 21:43:01 23° ESE 21:47:20 10° NE
OPS 6432 4.3 21:40:22 10° W 21:43:24 70° N 21:46:20 10° E
Helios 1A 3.0 21:41:31 21° SSE 21:44:17 79° ENE 21:48:34 10° NNW
Cosmos 1707 2.7 21:40:21 10° NNW 21:44:18 85° ENE 21:46:37 24° SSE
YAOGAN 11 4.3 21:44:43 20° SSE 21:47:55 76° ENE 21:52:29 10° NNW
Cosmos 1536 Rocket 3.7 21:45:19 10° NNW 21:49:40 67° ENE 21:52:31 21° SSE
EO 1 Del DPAF 3.1 21:47:11 10° NNE 21:50:59 78° ESE 21:53:13 23° SSW
Cosmos 1538 Rocket 4.2 21:46:50 10° NW 21:51:55 57° WSW 21:55:15 21° S
NOSS 3-2 (A) 3.8 21:45:54 10° W 21:52:18 84° N 21:59:50 10° E
Cosmos 1607 4.3 21:52:41 10° WNW 21:58:50 49° SW 22:03:21 18° SSE
Cosmos 1842 4.3 21:55:56 10° NNW 21:59:35 36° W 22:01:52 19° SSW
Cosmos 1782 Rocket 3.5 21:58:07 22° S 22:00:53 82° ESE 22:05:15 10° NNE
Cosmos 2082 Rocket 3.9 21:56:32 10° W 22:01:48 37° NNW 22:07:02 10° NE
Cosmos 158 Rocket 4.1 21:57:01 10° NW 22:02:26 87° ENE 22:06:53 16° SE
NOSS 3-2 (C) 3.7 21:56:33 10° WSW 22:02:56 87° N 22:10:25 10° ENE
Cosmos 1833 4.4 22:00:13 10° SW 22:05:54 76° NW 22:11:39 10° NE
Cosmos 2344 4.5 21:58:48 10° WNW 22:07:15 51° SW 22:17:17 14° SSE
Cosmos 1908 Rocket 3.9 22:04:49 17° SSW 22:08:06 61° WNW 22:12:26 10° NNE
Terra 4.4 22:10:25 10° W 22:11:43 11° WNW 22:13:01 10° WNW
SL-16 R/B 2.3 22:07:59 10° NW 22:13:38 62° SW 22:17:41 19° SSE
Helios 1B rocket 4.1 22:12:17 10° NE 22:15:36 23° E 22:18:00 15° SE
COSMOS 2487 3.8 22:13:09 10° WSW 22:16:24 37° NW 22:19:41 10° NNE
Cosmos 2112 Rocket 4.0 22:11:09 10° NW 22:16:25 89° WSW 22:20:39 16° SSE
MOS 1-B Rocket 4.3 22:12:00 10° NNE 22:17:37 58° WNW 22:23:08 10° SW
SL-16 R/B 3.4 22:12:00 10° SE 22:17:57 49° NE 22:23:56 10° NNW
Cosmos 2026 Rocket 4.0 22:12:33 10° NNW 22:18:41 80° ENE 22:23:28 18° SSE
Cosmos 1975 Rocket 4.3 22:20:32 10° NNW 22:24:31 32° W 22:27:17 17° SW
ATLAS 3B R/B 2.6 22:21:03 10° WSW 22:27:41 85° SSE 22:34:31 10° ENE
Cosmos 1354 Rocket 4.0 22:23:57 15° SW 22:28:22 89° WNW 22:33:44 10° NE
SL-14 R/B 4.1 22:26:05 10° N 22:29:52 44° ENE 22:32:56 14° SE
Thor Agena Rocket 3.9 22:25:38 10° NNE 22:30:39 61° WNW 22:35:03 14° SW
Cosmos 1680 Rocket 3.5 22:26:05 10° NW 22:31:19 69° WSW 22:35:05 19° SSE
Cosmos 1300 Rocket 3.6 22:28:47 24° S 22:31:20 69° E 22:35:39 10° NNE
Nimbus 7 Rocket 4.4 22:26:33 10° NNE 22:32:28 84° WNW 22:37:08 17° SSW
Cosmos 724 4.4 22:26:56 10° WNW 22:32:47 60° SW 22:38:30 11° SE
In-Cosmos 22 4.4 22:27:43 10° NNW 22:33:13 60° W 22:36:51 21° S
Cosmos 1544 4.1 22:30:39 16° SW 22:33:16 41° WNW 22:36:49 10° N
KORONAS-FOTON 3.7 22:29:57 10° NNW 22:33:46 90° ESE 22:35:59 24° SSE
Cosmos 2297 Rocket 2.7 22:32:12 21° S 22:35:43 46° ESE 22:41:07 10° NE
Cosmos 1743 4.4 22:35:20 10° WSW 22:38:47 29° WNW 22:42:16 10° N
Cosmos 1975 3.6 22:36:14 17° SW 22:39:07 47° WNW 22:43:06 10° N
Meteor 2-9 Rocket 4.5 22:35:06 17° SSW 22:39:35 71° WNW 22:45:27 10° NNE
Cosmos 1627 Rocket 4.5 22:33:34 10° NNW 22:39:46 80° W 22:44:24 19° S
Cosmos 1025 Rocket 3.6 22:36:02 10° NNW 22:40:08 45° W 22:42:31 22° SSW
Cosmos 1867 4.0 22:35:32 10° WNW 22:41:00 67° N 22:46:29 10° E
Cosmos 2237 Rocket 3.6 22:37:13 10° NW 22:41:40 24° WSW 22:44:34 16° SW
Cosmos 1777 Rocket 4.2 22:39:10 21° SSW 22:42:41 63° ESE 22:47:57 10° NE
Timation 2 Rocket 3.9 22:39:51 18° SSW 22:44:30 67° SE 22:50:27 10° NE
Cosmos 1634 Rocket 4.3 22:41:33 18° S 22:46:07 60° E 22:52:13 10° NNE
SJ 16-02 2.6 22:47:38 18° SSE 22:50:06 30° ESE 22:53:58 10° NE
Cosmos 2219 3.3 22:46:31 20° SSW 22:50:22 60° ESE 22:55:55 10° NE
Cosmos 1464 Rocket 4.2 22:46:12 16° SSW 22:51:10 65° WNW 22:57:19 10° NNE
Meteor 1-24 Rocket 3.7 22:47:13 10° NNW 22:52:43 82° ENE 22:57:07 16° SSE
Okean 1 Rocket 3.7 22:50:07 20° SSE 22:52:54 48° E 22:57:09 10° NNE
CZ-4C R/B 4.3 22:49:51 10° SE 22:53:16 40° ENE 22:56:53 10° N
USA 238 DEB 3.9 22:46:26 10° W 22:53:22 82° N 23:00:41 10° E
USA 238 3.9 22:46:32 10° W 22:53:29 82° N 23:00:47 10° E
Cosmos 1603 3.7 22:48:37 10° NW 22:54:25 82° SW 23:00:09 10° SE
Cosmos 1674 2.8 22:51:23 10° NNW 22:55:05 58° W 22:57:04 25° S
Cosmos 1437 4.4 22:53:10 10° NW 22:55:23 19° W 22:56:20 17° WSW
CENTAUR R/B 3.0 22:49:17 10° W 22:56:16 82° N 23:04:30 10° E
Okean 2 Rocket 3.2 22:53:44 21° SSW 22:56:41 77° WNW 23:01:15 10° NNE
Cosmos 2084 Rocket 3.6 22:54:08 10° W 22:58:29 82° N 23:02:56 10° E
Meteor 1-15 Rocket 4.5 22:55:36 19° S 22:59:34 61° E 23:05:04 10° NNE
CZ-2D R/B 3.8 22:55:36 10° NNE 23:00:11 26° E 23:04:45 10° SE
IRAS Rocket 4.4 22:59:25 10° SSE 23:05:01 76° ENE 23:10:41 10° NNW
Cosmos 2266 Rocket 4.3 23:04:45 10° NNW 23:11:09 71° ENE 23:17:24 10° SSE
Okean 1-7 Rocket 3.8 23:06:47 10° NNW 23:11:14 71° ENE 23:15:00 14° SSE
Cosmos 1943 3.1 23:06:20 10° NW 23:11:59 76° SW 23:17:36 10° SSE
NOSS 5 (C) 4.3 23:11:41 10° W 23:14:50 73° N 23:17:49 10° E
Cosmos 1626 2.1 23:12:32 10° NNW 23:16:16 75° WSW 23:18:35 22° S
Sich 1 Rocket 4.5 23:15:13 15° SW 23:18:32 41° WNW 23:22:45 10° N
Cosmos 1455 Rocket 4.4 23:15:14 12° SSE 23:18:49 33° E 23:22:51 10° NNE
USA 267 3.3 23:14:09 10° E 23:20:37 58° S 23:27:05 10° WSW
Lacrosse 4 Rocket 2.4 23:16:45 10° W 23:20:49 47° NNW 23:24:50 10° NE
Cosmos 1892 Rocket 3.6 23:20:02 10° NNW 23:24:32 78° WSW 23:27:50 18° S
Cosmos 2034 Rocket 4.5 23:19:27 15° SW 23:24:39 56° WNW 23:30:56 10° NNE
Cosmos 2098 Rocket 3.8 23:20:34 10° NNW 23:25:45 83° ENE 23:32:03 11° SSE
Cosmos 2227 Rocket 2.2 23:21:59 18° SSW 23:26:18 73° SE 23:31:58 10° NE
Cosmos 1733 3.5 23:24:08 20° S 23:26:37 59° E 23:30:27 10° NNE
Cosmos 1461 3.9 23:24:34 20° S 23:27:04 36° SE 23:31:20 10° ENE
MOZ.5/SAFIR/RUBIN 5/SL-8 3.8 23:23:32 16° SSE 23:27:18 76° WSW 23:32:03 10° NNW
Cosmos 1340 Rocket 4.3 23:25:32 11° SSE 23:28:40 28° E 23:32:02 10° NNE
Cosmos 1766 3.3 23:26:28 21° S 23:28:57 70° E 23:32:50 10° NNE
Cosmos 2151 Rocket 3.9 23:26:48 19° SW 23:29:53 57° WNW 23:34:15 10° N
Resurs 1-4 Rocket 3.2 23:25:58 10° NNE 23:30:53 37° E 23:35:32 11° SSE
OPS 6432 3.9 23:29:38 10° WNW 23:32:32 72° SSW 23:35:40 10° ESE
Meteor 2-5 Rocket 4.0 23:27:25 10° NNW 23:32:52 51° W 23:36:52 18° SSW
Landsat 4 3.8 23:29:33 10° NNE 23:33:22 69° WNW 23:35:51 20° SSW
Cosmos 1048 Rocket 4.1 23:29:32 10° NW 23:34:43 81° NE 23:39:55 10° SE
Cosmos 1900 4.3 23:32:44 10° WNW 23:37:51 73° SW 23:42:59 10° SE
Meteor 1-22 Rocket 4.4 23:34:56 16° S 23:39:10 62° E 23:44:35 10° NNE
UNK 3.7 23:35:51 13° SSE 23:39:58 80° WSW 23:44:41 10° NNW
Cosmos 1470 3.8 23:39:13 13° SSE 23:42:25 40° E 23:46:11 10° NNE
NOSS 3-2 (A) 3.9 23:36:47 10° WNW 23:43:32 89° N 23:51:27 10° ESE
Cosmos 2082 Rocket 3.9 23:41:53 10° NW 23:47:10 37° NNE 23:52:25 10° E
COBE Rocket 4.0 23:42:33 10° SSE 23:47:10 71° ENE 23:51:52 10° NNW
Cosmos 1953 4.2 23:44:30 10° SE 23:47:51 25° E 23:51:12 10° NNE
Cosmos 1805 3.3 23:45:52 20° SSW 23:48:30 73° WNW 23:52:25 10° NNE
Helios 1B rocket 2.5 23:47:12 10° NNE 23:51:19 73° WNW 23:54:18 18° SSW
PSLV R/B 4.1 23:46:44 10° NNE 23:51:21 58° WNW 23:55:06 16° SW
Spot 1 4.3 23:49:42 18° S 23:52:28 47° WSW 23:56:29 10° NNW
Cosmos 2082 3.8 23:48:47 17° SSW 23:53:12 70° SE 23:58:49 10° NE
Cosmos 1937 Rocket 4.2 23:49:29 15° S 23:53:42 46° ESE 23:58:45 10° NE
Cosmos 990 Rocket 4.3 23:50:28 17° S 23:54:26 59° ESE 23:59:31 10° NE
H-2A R/B 4.4 23:51:31 10° ESE 23:54:52 25° NE 23:58:16 10° N
